OSCAR 3 1 01293U 65016F 09006.86845224 -.00000044 00000-0 62399-5 0 4276 2 01293 070.0699 160.0450 0016971 017.6920 342.4772 14.04681078237159 OSCAR 5 1 04321U 70008B 09006.17994188 -.00000032 00000-0 10000-3 0 1034 2 04321 102.1305 014.2239 0027699 286.5683 073.2346 12.52155572780483 OSCAR 6 1 06236U 72082B 09005.76525106 -.00000027 00000-0 10000-3 0 931 2 06236 101.4037 025.6635 0003744 207.0182 153.0693 12.53076164657066 OSCAR 7 1 07530U 74089B 09006.95961729 -.00000027 00000-0 10000-3 0 3714 2 07530 101.4447 037.4581 0011897 223.7812 136.2316 12.53575070562513 OSCAR 8 1 10703U 78026B 09007.19281659 -.00000110 00000-0 -46975-4 0 3736 2 10703 098.8567 058.1249 0005979 250.9590 109.0926 13.98824642573510 OSCAR 10 1 14129U 83058B 09005.60011086 -.00000019 00000-0 10000-3 0 6056 2 14129 026.0280 177.7445 5962495 187.3956 156.7605 02.05870582164302 OSCAR 11 (UoSAT 2) 1 14781U 84021B 09006.05669341 -.00000207 00000-0 -20348-4 0 8547 2 14781 098.1308 048.8490 0009562 134.4732 225.7206 14.79686253333858 OSCAR 16 (PACSAT) 1 20439U 90005D 09006.98735554 .00000007 00000-0 17864-4 0 5042 2 20439 098.2579 342.9151 0010055 293.3008 066.7117 14.31812748990084 OSCAR 17 (DOVE) 1 20440U 90005E 09006.81259841 -.00000004 00000-0 13626-4 0 2144 2 20440 098.2334 347.8479 0010220 290.0524 069.9568 14.32115691990194 OSCAR 18 (WEBERSAT) 1 20441U 90005F 09007.06883768 -.00000004 00000-0 13914-4 0 7217 2 20441 098.2401 346.6824 0010797 292.0487 067.9547 14.31880749990164 OSCAR 19 (LUSAT) 1 20442U 90005G 09007.00094916 .00000006 00000-0 17376-4 0 4282 2 20442 098.2217 350.7938 0011027 289.2773 070.7218 14.32049773990246 JAS 1B (FUJI 2) 1 20480U 90013C 09006.96456271 -.00000017 00000-0 32907-4 0 302 2 20480 099.0583 317.6552 0540433 175.2209 185.4355 12.83359261886221 COSMOS 2123 1 21089U 91007A 09007.16585272 -.00000017 00000-0 -34038-4 0 420 2 21089 082.9202 026.1444 0030816 059.2674 301.1517 13.74483467899075 OSCAR 22 (UoSAT 5) 1 21575U 91050B 09006.03861471 .00000069 00000-0 35762-4 0 4537 2 21575 098.4266 317.4102 0007880 140.0863 220.0904 14.39661033917370 OSCAR 23 (KITSAT 1) 1 22077U 92052B 09007.06077940 -.00000037 00000-0 10000-3 0 6335 2 22077 066.0872 304.1104 0010009 317.5446 042.4788 12.86446586770795 KITSAT B 1 22825U 93061C 09006.50107230 .00000033 00000-0 29388-4 0 1465 2 22825 098.4167 325.2072 0008952 026.2265 333.9370 14.29255764796818 POSAT 1 1 22826U 93061D 09006.37966599 .00000008 00000-0 19696-4 0 8642 2 22826 098.4090 325.9108 0009456 023.2136 336.9469 14.29506212796892 ITAMSAT 1 22828U 93061F 09007.00776837 -.00000069 00000-0 -10288-4 0 828 2 22828 098.4012 326.4587 0009980 355.4847 004.6242 14.29807733765252 EYESAT A 1 22829U 93061G 09006.54661650 .00000046 00000-0 33959-4 0 1209 2 22829 098.3973 327.1381 0009856 353.8864 006.2201 14.30206131797199 RADIO ROSTO 1 23439U 94085A 09006.20635854 -.00000039 00000-0 10000-3 0 1714 2 23439 064.8126 166.7507 0145931 083.2313 278.5194 11.27553549577855 JAS 2 1 24278U 96046B 09006.49170619 -.00000038 00000-0 -43276-5 0 9440 2 24278 098.5769 262.0516 0351222 049.3083 313.8020 13.52941678611880 TMSAT 1 25396U 98043C 09006.22314095 -.00000113 00000-0 -31477-4 0 2996 2 25396 098.3520 042.4730 0002523 007.8832 352.2411 14.23768973545253 TECHSAT 1B 1 25397U 98043D 09006.50828144 -.00000124 00000-0 -36776-4 0 7908 2 25397 098.3430 037.3872 0001597 043.8323 316.2995 14.23152763545137 SEDSAT 1 1 25509U 98061B 09006.87320101 .00000072 00000-0 33229-5 0 3618 2 25509 031.4329 244.6417 0354672 007.9972 352.6110 14.28234128532759 PAN SAT 1 25520U 98064B 09006.05587139 .00000358 00000-0 78267-5 0 1582 2 25520 028.4611 260.5150 0005136 335.1476 024.8870 15.17279902564008 ISS (ZARYA) 1 25544U 98067A 09006.52567200 .00012730 00000-0 99439-4 0 130 2 25544 051.6428 054.4350 0007000 165.8125 336.8270 15.72052661580528 UOSAT 12 1 25693U 99021A 09007.04616689 -.00000094 00000-0 65497-5 0 8137 2 25693 064.5579 250.8916 0023291 211.5639 148.4000 14.78734205524018 OPAL 1 26063U 00004C 09006.34883725 -.00000025 00000-0 11815-4 0 4023 2 26063 100.1889 123.5631 0036916 357.7140 002.3869 14.35852844468728 SAUDISAT 1A 1 26545U 00057A 09006.04304804 .00000120 00000-0 34471-4 0 1530 2 26545 064.5581 257.1872 0049274 303.6090 056.0318 14.80555895447190 TIUNGSAT 1 1 26548U 00057D 09006.03651725 -.00000053 00000-0 12029-4 0 2889 2 26548 064.5574 222.5635 0046458 296.0863 063.5437 14.83329770447900 SAUDISAT 1B 1 26549U 00057E 09007.02930294 -.00000047 00000-0 13444-4 0 2303 2 26549 064.5585 269.9026 0051716 308.5236 051.1178 14.79412204447026 AMSAT OSCAR 40 1 26609U 00072B 09004.08478258 .00000010 00000-0 10000-3 0 1758 2 26609 008.4159 039.9125 7942372 162.0096 264.3578 01.25584139 37563 PCSAT 1 26931U 01043C 09006.88006619 .00000205 00000-0 11230-3 0 686 2 26931 067.0511 119.9096 0005928 257.3554 102.6890 14.29545205379522 SAPPHIRE 1 26932U 01043D 09006.56976693 -.00000059 00000-0 94213-5 0 693 2 26932 067.0556 120.6191 0007866 252.6659 107.3580 14.29599879379528 RUBIN 2 1 27605U 02058A 09005.94521245 -.00000161 00000-0 -22843-5 0 8107 2 27605 064.5586 145.6901 0081161 240.7844 118.5130 14.72380147325059 SAUDISAT 1C 1 27607U 02058C 09006.49919153 -.00000070 00000-0 11497-4 0 7838 2 27607 064.5569 156.1602 0081786 239.8263 119.4703 14.71405909324883 MOZHAYETS 4 1 27939U 03042A 09007.02817382 .00000006 00000-0 10137-4 0 6861 2 27939 097.9665 247.5287 0012704 284.0490 075.9305 14.63285925282006 AMSAT ECHO 1 28375U 04025K 09006.55226997 .00000001 00000-0 13187-4 0 2859 2 28375 098.0572 025.5393 0083033 256.2164 102.9777 14.40629605237684 HAMSAT 1 28650U 05017B 09006.36472921 .00000403 00000-0 57705-4 0 1226 2 28650 097.7655 073.1220 0026819 195.6888 164.3481 14.81541951198686 SSETI-EXPRESS 1 28894U 05043E 09006.35805859 .00000022 00000-0 14226-4 0 3561 2 28894 098.0766 261.1196 0018180 133.6013 226.6697 14.59649750170242 MOZ.5/SAFIR/RUBIN 5/SL-8 1 28898U 05043G 09005.98075368 -.00000004 00000-0 89119-5 0 2178 2 28898 098.0645 257.8812 0019319 144.4112 215.8401 14.58554935170055 SUITSAT (Decayed 2006-09-07) 1 28933U 05035C 06250.56263144 .13300754 00000-0 18638-3 0 4012 2 28933 051.6150 101.2534 0006572 313.0977 047.0289 16.48585101 34276 CUTE 1.7 1 28941U 06005C 09007.01721826 .00028472 27682-5 15800-3 0 7019 2 28941 098.1227 153.6256 0128362 015.0611 345.4374 15.68939985161864 HITSAT (Decayed 2008-06-18) 1 29484U 06041F 08170.27591928 .21901596 31637-5 19690-3 0 4662 2 29484 098.2496 292.5583 0013872 275.6258 084.5236 16.51113477 98738 RAFT (Decayed 2007-05-30) 1 29661U 06055C 07150.05824307 .13324117 12618-4 10400-3 0 3000 2 29661 051.6186 176.5045 0007204 190.7749 188.7342 16.52052832 25544 MARSCOM (Decayed 2007-05-06) 1 29662U 06055D 07126.39603970 .07031946 12599-4 11450-3 0 2632 2 29662 051.6121 302.3682 0004459 252.1654 110.7411 16.47981436 21652 ANDE MAA SPHERE 1 (Decayed 2007-12-25) 1 29664U 06055F 07359.16654419 .14620719 12705-4 12723-3 0 7381 2 29664 051.6179 150.0690 0003189 248.8461 111.8136 16.51627846 58777 ANDE FCAL SPHERE 2 (Decayed 2008-05-25) 1 29667U 06055J 08146.34060426 .11864717 12752-4 73624-4 0 9790 2 29667 051.6107 065.3702 0009039 260.8350 099.5042 16.53464210 82911 PEHUENSAT 1 1 29712U 07001D 09007.09304252 .00000541 00000-0 77504-4 0 1258 2 29712 097.8518 067.1927 0015290 079.8370 280.4573 14.80402197107636